K5RG-3 Weather Reports


time (UTC)temp
F
wind
direction
speed
knots
gust
knots
rain 1hr
in
rain 24hr
in
rain mn
in
humidity
%
barometer
mb
20260901153042 85 25 2.6 7.8 0.00 0.04 0.00 79 1013.6
20260901151539 84 25 3.5 7.0 0.00 0.04 0.00 80 1013.6
20260901150036 84 352 2.6 7.8 0.00 0.04 0.00 81 1013.5
20260901144531 84 34 1.7 6.1 0.00 0.04 0.00 82 1013.5
20260901143031 83 331 2.6 6.1 0.00 0.04 0.00 82 1013.5
20260901141527 83 352 2.6 7.0 0.00 0.04 0.00 83 1013.6
20260901140023 82 329 2.6 6.1 0.00 0.04 0.00 85 1013.5
20260901134534 82 325 2.6 6.1 0.00 0.04 0.00 85 1013.3
20260901133019 82 325 1.7 5.2 0.00 0.04 0.00 86 1013.5
20260901131517 81 344 0.9 6.1 0.00 0.04 0.00 87 1013.4
20260901130015 81 338 0.9 5.2 0.00 0.04 0.00 87 1013.2
20260901124511 81 346 1.7 5.2 0.00 0.04 0.00 88 1013.1
20260901123012 81 46 0.9 2.6 0.00 0.04 0.00 88 1013.0
20260901121512 81 344 0.0 2.6 0.00 0.04 0.00 88 1012.7
20260901120007 81 336 0.9 3.5 0.00 0.04 0.00 88 1012.5
20260901114508 81 27 0.9 2.6 0.00 0.04 0.00 88 1012.5
20260901113013 82 27 0.9 2.6 0.00 0.04 0.00 88 1012.7
20260901111504 81 323 0.0 0.0 0.00 0.04 0.00 89 1012.5
20260901110004 81 309 1.7 4.3 0.00 0.04 0.00 89 1012.4
20260901104501 81 334 1.7 4.3 0.00 0.04 0.00 89 1012.3
20260901103105 81 317 0.0 1.7 0.00 0.04 0.00 89 1012.4
20260901101615 81 333 0.9 2.6 0.00 0.04 0.00 89 1012.4
20260901100114 81 331 0.9 3.5 0.00 0.04 0.00 88 1012.3
20260901094558 81 326 1.7 2.6 0.00 0.04 0.00 88 1012.5
20260901093056 81 327 1.7 3.5 0.00 0.04 0.00 89 1012.5
20260901091556 81 301 0.9 3.5 0.00 0.04 0.00 89 1012.6
20260901090101 81 298 0.9 2.6 0.00 0.04 0.00 89 1012.7
20260901084559 81 279 2.6 3.5 0.00 0.04 0.00 89 1012.7
20260901083054 81 273 0.9 2.6 0.00 0.04 0.00 89 1012.7
20260901081557 81 275 0.0 0.0 0.00 0.04 0.00 89 1012.6
20260901080053 81 122 0.0 0.0 0.00 0.04 0.00 88 1012.7
20260901074550 81 122 0.0 0.0 0.00 0.04 0.00 88 1012.7
20260901073151 81 122 0.0 0.0 0.00 0.04 0.00 88 1012.7
20260901071546 82 122 0.0 0.0 0.00 0.04 0.00 87 1012.8
20260901070057 82 122 0.0 0.0 0.00 0.04 0.00 87 1013.0
20260901064545 82 122 0.0 0.0 0.00 0.04 0.00 86 1012.9
20260901063047 82 122 0.0 0.0 0.00 0.04 0.00 86 1012.8
20260901061542 82 122 0.0 0.0 0.00 0.04 0.00 86 1012.9
20260901060045 82 122 0.0 0.0 0.00 0.04 0.00 86 1013.2
20260901054541 82 122 0.0 0.0 0.00 0.04 0.00 86 1013.1
20260901053102 82 122 0.0 1.7 0.00 0.04 0.00 85 1013.0
20260901051538 82 122 0.0 0.9 0.00 0.04 0.00 85 1013.0
20260901050037 82 122 0.0 0.9 0.00 0.04 0.00 86 1013.0
20260901044554 82 122 0.0 0.0 0.00 0.04 0.04 85 1012.8
20260901043040 82 122 0.0 0.0 0.00 0.04 0.04 85 1013.0
20260901041536 83 122 0.0 0.0 0.00 0.04 0.04 84 1013.0
20260901040036 83 122 0.0 0.0 0.00 0.04 0.04 84 1012.9
20260901034541 83 122 0.0 0.9 0.00 0.04 0.04 84 1012.9
20260901033041 83 122 0.0 0.0 0.00 0.04 0.04 84 1012.9
20260901031544 84 122 0.0 0.0 0.00 0.04 0.04 84 1012.9
20260901030034 84 122 0.0 0.0 0.00 0.04 0.04 83 1012.7
20260901024536 85 122 0.0 0.0 0.00 0.04 0.04 82 1012.5
20260901023039 85 201 0.0 0.0 0.00 0.04 0.04 82 1012.2
20260901021538 85 201 0.0 0.0 0.00 0.04 0.04 82 1012.1
20260901020054 85 201 0.0 0.0 0.00 0.04 0.04 82 1011.9
20260901014531 85 201 0.0 0.0 0.00 0.04 0.04 81 1011.7
20260901013030 86 201 0.0 0.0 0.00 0.04 0.04 80 1011.7
20260901011537 86 201 0.0 0.0 0.00 0.04 0.04 79 1011.8
20260901010029 87 201 0.0 0.0 0.00 0.04 0.04 77 1011.6
20260901004528 87 201 0.0 0.0 0.00 0.04 0.04 77 1011.7
20260901003030 87 182 0.0 0.9 0.00 0.04 0.04 76 1011.8
20260901001528 88 209 0.0 1.7 0.00 0.04 0.04 75 1011.8
20260901000026 88 226 0.0 1.7 0.00 0.04 0.04 75 1011.7
20260831234526 88 212 0.0 0.9 0.00 0.04 0.04 74 1011.7
20260831233035 88 169 0.0 0.0 0.00 0.04 0.04 73 1011.8
20260831231526 89 182 0.0 0.9 0.00 0.04 0.04 73 1011.8
20260831230023 89 182 0.0 0.9 0.00 0.04 0.04 73 1011.9
20260831224522 89 159 0.0 0.9 0.00 0.04 0.04 74 1012.0
20260831223022 88 138 0.0 0.9 0.00 0.04 0.04 76 1012.0
20260831221520 87 166 0.0 0.9 0.00 0.04 0.04 79 1012.0
20260831220023 85 205 0.0 0.9 0.00 0.04 0.04 82 1012.2
20260831214519 84 218 0.0 1.7 0.00 0.04 0.04 84 1012.4
20260831213028 83 200 0.0 3.5 0.00 0.04 0.04 86 1012.6
20260831211516 82 252 0.0 1.7 0.03 0.04 0.04 87 1012.8
20260831210020 82 231 0.0 1.7 0.04 0.04 0.04 86 1012.9
20260831204515 82 238 3.5 8.7 0.04 0.04 0.04 86 1013.4
20260831203013 84 266 1.7 5.2 0.04 0.04 0.04 82 1013.6
20260831201514 87 98 3.5 12.2 0.00 0.00 0.00 76 1013.6
20260831200021 91 160 0.9 4.3 0.00 0.00 0.00 73 1013.3
20260831194524 91 88 1.7 5.2 0.00 0.00 0.00 68 1013.5
20260831193012 90 300 2.6 5.2 0.00 0.00 0.00 71 1013.5
20260831191512 90 10 0.9 9.6 0.00 0.00 0.00 72 1013.7
20260831190010 93 15 0.9 5.2 0.00 0.00 0.00 65 1013.9
20260831184513 92 54 0.9 4.3 0.00 0.00 0.00 66 1013.9
20260831183107 92 335 0.0 3.5 0.00 0.00 0.00 67 1014.0
20260831181557 91 134 0.9 3.5 0.00 0.00 0.00 68 1014.2
20260831180053 90 112 0.9 5.2 0.00 0.00 0.00 71 1014.5
20260831174602 90 95 0.9 6.1 0.00 0.00 0.00 72 1014.5
20260831173058 89 71 0.9 4.3 0.00 0.00 0.00 75 1014.7
20260831171545 88 192 0.0 3.5 0.00 0.00 0.00 77 1014.8
20260831170044 86 279 0.9 4.3 0.00 0.00 0.00 77 1015.0
20260831164542 88 154 0.9 7.0 0.00 0.00 0.00 77 1015.0
20260831163049 87 58 4.3 8.7 0.00 0.00 0.00 79 1014.9
20260831161541 88 51 1.7 7.0 0.00 0.00 0.00 78 1015.0
20260831160045 88 81 0.9 7.8 0.00 0.00 0.00 76 1015.0
20260831154537 87 81 1.7 6.1 0.00 0.00 0.00 81 1014.8